This is the latest recevied weather packets stored in our database for station/object F8KHU-13. If no packets are shown the sender has not sent any weather packets the latest 1 day(s).
| Time | Temp. | Humidity | Pressure | Rain* | Wind** | Luminosity | Snow |
|---|---|---|---|---|---|---|---|
| 1777983914 | 14.44° C | 32% | 1011 hPa | 0 mm | 1.79 m/s, 136° | 0 W/m² | - |
| 1777983894 | 14.44° C | 32% | 1011.1 hPa | 0 mm | 1.79 m/s, 135° | 0 W/m² | - |
| 1777983034 | 14.44° C | 32% | 1011.1 hPa | 0 mm | 0.45 m/s, 140° | 0 W/m² | - |
| 1777983015 | 14.44° C | 32% | 1011.1 hPa | 0 mm | 1.79 m/s, 140° | 0 W/m² | - |
| 1777982994 | 14.44° C | 32% | 1011.1 hPa | 0 mm | 2.68 m/s, 138° | 0 W/m² | - |
| 1777982134 | 14.44° C | 32% | 1011.2 hPa | 0 mm | 0.45 m/s, 139° | 0 W/m² | - |
| 1777982114 | 14.44° C | 32% | 1011.3 hPa | 0 mm | 1.79 m/s, 139° | 0 W/m² | - |
| 1777982094 | 14.44° C | 32% | 1011.2 hPa | 0 mm | 0.89 m/s, 138° | 0 W/m² | - |
| 1777981234 | 13.89° C | 32% | 1011.2 hPa | 0 mm | 0.45 m/s, 148° | 0 W/m² | - |
| 1777981194 | 13.89° C | 32% | 1011.2 hPa | 0 mm | 0 m/s | 0 W/m² | - |
| 1777980335 | 13.89° C | 33% | 1011.4 hPa | 0 mm | 0.45 m/s, 142° | 0 W/m² | - |
| 1777980294 | 13.89° C | 33% | 1011.4 hPa | 0 mm | 0.45 m/s, 142° | 0 W/m² | - |
| 1777979435 | 13.89° C | 33% | 1011.5 hPa | 0 mm | 0 m/s | 0 W/m² | - |
| 1777979414 | 13.89° C | 33% | 1011.4 hPa | 0 mm | 0 m/s | 0 W/m² | - |
| 1777979394 | 13.89° C | 33% | 1011.5 hPa | 0 mm | 0.45 m/s, 133° | 0 W/m² | - |
| 1777978535 | 13.33° C | 33% | 1011.6 hPa | 0 mm | 0.89 m/s, 150° | 0 W/m² | - |
| 1777978515 | 13.33° C | 33% | 1011.6 hPa | 0 mm | 0.45 m/s, 149° | 0 W/m² | - |
| 1777978494 | 13.33° C | 33% | 1011.6 hPa | 0 mm | 1.79 m/s, 148° | 0 W/m² | - |
| 1777977635 | 13.89° C | 33% | 1011.7 hPa | 0 mm | 1.34 m/s, 150° | 0 W/m² | - |
| 1777977615 | 13.89° C | 33% | 1011.8 hPa | 0 mm | 0 m/s | 0 W/m² | - |
| 1777977595 | 13.89° C | 33% | 1011.7 hPa | 0 mm | 0 m/s | 0 W/m² | - |
| 1777976735 | 13.33° C | 33% | 1011.8 hPa | 0 mm | 0 m/s | 0 W/m² | - |
| 1777976715 | 13.33° C | 33% | 1011.8 hPa | 0 mm | 0.45 m/s, 141° | 0 W/m² | - |
| 1777976695 | 13.33° C | 33% | 1011.8 hPa | 0 mm | 0 m/s | 0 W/m² | - |
| 1777975835 | 13.33° C | 33% | 1011.6 hPa | 0 mm | 0.45 m/s, 131° | 0 W/m² | - |
* Rain latest hour (hover to see other rain measurements)
** Current wind speed in m/s (hover to see current wind gust speed)